Yeovilton, United Kingdom

1:57 PM BST on June 23, 2018 (GMT +0100)
Yeovil Radar Navy

Weather History for EGDY - October, 2017

Change the Weather History Date:

Friday, October 27, 2017

  Actual Average Record
Temperature  
Mean Temperature 50 °F -  
Max Temperature 61 °F 51 °F 62 °F (1996)
Min Temperature 37 °F 39 °F 26 °F (2003)
Degree Days  
Heating Degree Days 14    
Moisture  
Dew Point 47 °F    
Average Humidity 81    
Maximum Humidity 100    
Minimum Humidity 52    
Precipitation  
Precipitation 0.00 in - - ()
Sea Level Pressure  
Sea Level Pressure 30.51 in    
Wind  
Wind Speed 5 mph ()    
Max Wind Speed 9 mph    
Max Gust Speed -    
Visibility 7.9 miles    
Events Fog    
Averages and records for this station are not official NWS values.
T = Trace of Precipitation, MM = Missing Value Source: Averaged Metar Reports

Daily Weather History Graph

Daily Weather History Graph

Search for Another Location

Airport or City:

Astronomy

Oct. 27, 2017 Rise Set
Actual Time 7:54 AM BST 5:53 PM BST
Civil Twilight 7:19 AM BST 6:27 PM BST
Nautical Twilight 6:41 AM BST 7:06 PM BST
Astronomical Twilight 6:03 AM BST 7:44 PM BST
Moon 2:32 PM BST (10/27) 11:38 PM BST (10/27)
Length of Visible Light 11h 07m
Length of Day
9h 59m
Waxing Crescent, 46% of the Moon is Illuminated
Oct 27
Waxing Crescent
Oct 27
First Quarter
Nov 4
Full
Nov 10
Last Quarter
Nov 18
New

Hourly Weather History & Observations

Time (BST) Temp. Windchill Dew Point Humidity Pressure Visibility Wind Dir Wind Speed Gust Speed Precip Events Conditions
12:00 AM 56 °F - 54 °F 90% 30.36 in 10 mi West 4.6 mph - -   Mostly Cloudy
12:50 AM 53.6 °F - 51.8 °F 94% 30.36 in - West 5.8 mph - N/A   Scattered Clouds
1:00 AM 53 °F - 52 °F 94% 30.37 in 2 mi West 5.8 mph - -   Mist
1:50 AM 53.6 °F - 53.6 °F 100% 30.36 in - NW 3.5 mph - N/A   Mostly Cloudy
2:50 AM 53.6 °F - 53.6 °F 100% 30.39 in 2.2 mi WNW 4.6 mph - N/A   Mostly Cloudy
3:00 AM 54 °F - 53 °F 95% 30.39 in 2 mi WNW 4.6 mph - -   Mist
3:50 AM 55.4 °F - 53.6 °F 94% 30.39 in 3.1 mi NNW 5.8 mph - N/A   Haze
4:00 AM 55 °F - 54 °F 93% 30.40 in 3 mi NNW 5.8 mph - -   Haze
4:50 AM 55.4 °F - 51.8 °F 88% 30.42 in 6.2 mi NNE 8.1 mph - N/A   Mostly Cloudy
5:00 AM 55 °F - 51 °F 82% 30.42 in 6 mi NNE 8.1 mph - -   Mostly Cloudy
5:50 AM 53.6 °F - 50.0 °F 88% 30.42 in 6.2 mi North 8.1 mph - N/A   Scattered Clouds
6:00 AM 54 °F - 49 °F 79% 30.44 in 9 mi North 8.1 mph - -   Partly Cloudy
6:50 AM 53.6 °F - 48.2 °F 82% 30.45 in 6.2 mi NNE 8.1 mph - N/A   Mostly Cloudy
7:00 AM 53 °F - 48 °F 78% 30.46 in 9 mi NNE 8.1 mph - -   Mostly Cloudy
7:50 AM 50.0 °F - 46.4 °F 87% 30.48 in 6.2 mi NNE 8.1 mph - N/A   Partly Cloudy
8:00 AM 49 °F - 46 °F 85% 30.49 in 16 mi NNE 8.1 mph - -   Scattered Clouds
8:50 AM 50.0 °F - 46.4 °F 87% 30.51 in 6.2 mi NNE 5.8 mph - N/A   Partly Cloudy
9:50 AM 51.8 °F - 46.4 °F 82% 30.54 in - North 5.8 mph - N/A   Clear
10:00 AM 52 °F - 47 °F 76% 30.55 in 16 mi North 5.8 mph - -   Clear
10:50 AM 53.6 °F - 46.4 °F 77% 30.57 in 6.2 mi North 9.2 mph - N/A   Partly Cloudy
11:50 AM 55.4 °F - 46.4 °F 72% 30.57 in 6.2 mi NNE 6.9 mph - N/A   Partly Cloudy
12:50 PM 57.2 °F - 46.4 °F 67% 30.57 in 6.2 mi NE 5.8 mph - N/A   Partly Cloudy
1:00 PM 56 °F - 47 °F 63% 30.58 in 16 mi NE 5.8 mph - -   Scattered Clouds
1:50 PM 57.2 °F - 46.4 °F 67% 30.57 in 6.2 mi NNE 4.6 mph - N/A   Partly Cloudy
2:00 PM 57 °F - 46 °F 56% 30.58 in 16 mi NNE 4.6 mph - -   Scattered Clouds
2:50 PM 59.0 °F - 44.6 °F 59% 30.54 in 6.2 mi SSE 2.3 mph - N/A   Partly Cloudy
3:00 PM 58 °F - 45 °F 53% 30.56 in 16 mi SSE 2.3 mph - -   Scattered Clouds
3:50 PM 59.0 °F - 46.4 °F 63% 30.54 in 6.2 mi ENE 1.2 mph - N/A   Partly Cloudy
4:00 PM 59 °F - 46 °F 52% 30.56 in 16 mi ENE 1.2 mph - -   Scattered Clouds
4:50 PM 57.2 °F - 46.4 °F 67% 30.57 in 6.2 mi North 4.6 mph - N/A   Partly Cloudy
5:00 PM 57 °F - 46 °F 56% 30.57 in 28 mi North 4.6 mph - -   Scattered Clouds
5:50 PM 53.6 °F - 46.4 °F 77% 30.57 in 6.2 mi NW 3.5 mph - N/A   Unknown
6:00 PM 54 °F - 46 °F 65% 30.58 in 19 mi NW 3.5 mph - -  
6:50 PM 50.0 °F - 44.6 °F 82% 30.57 in 6.2 mi WNW 4.6 mph - N/A   Unknown
7:00 PM 50 °F - 45 °F 78% 30.59 in 14 mi WNW 4.6 mph - -  
7:50 PM 48.2 °F - 44.6 °F 87% 30.60 in 5.0 mi North 1.2 mph - N/A   Haze
8:00 PM 47 °F - 44 °F 85% 30.60 in 5 mi North 1.2 mph - -   Light Haze
8:50 PM 44.6 °F 43.1 °F 42.8 °F 93% 30.57 in 6.2 mi South 3.5 mph - N/A   Unknown
9:00 PM 45 °F - 43 °F 92% 30.59 in 7 mi South 3.5 mph - -  
9:50 PM 41.0 °F - 41.0 °F 100% 30.57 in 6.2 mi Calm Calm - N/A   Unknown
10:00 PM 42 °F - 40 °F 90% 30.59 in 7 mi Calm Calm - -  
10:50 PM 41.0 °F - 39.2 °F 93% 30.57 in 4.3 mi ESE 2.3 mph - N/A   Mist
11:00 PM 40 °F - 40 °F 100% 30.58 in 4 mi ESE 2.3 mph - -  
11:50 PM 37.4 °F 34.9 °F 37.4 °F 100% 30.57 in - SSE 3.5 mph - N/A Fog Fog